[[{"header":{"parameterUnit":"m.s-1","parameterCategory":2,"la1":30.2991,"la2":30.254,"lo1":-89.0895,"lo2":-89.0444,"dy":0.0017,"dx":0.0017,"nx":28,"ny":28,"refTime":"2026-02-09T03:00:00:Z","depth":"0","parameterNumber":2,"parameterNumberName":"U-component_of_CURRENTS"},"data":[0,0,0,0,0,0,0,0,0,0,0,0,0,0,0,0,0,0,0,0,0,0,0,0,0,0,0,0,0,0,0,0,0,0,0,0,0,0,0,0,0,0,0,0,0,0,0,0,0,0,0,0,0,0,0,0,0,0,0.3919,0.3919,0,0.3898,0.3898,0.3898,0.3813,0.3811,0.3809,0.3808,0.3558,0.3553,0.3549,0,0,0,0,0,0,0,0,0,0,0,0,0,0.3827,0.3829,0.3919,0.3919,0.3918,0.3898,0.3898,0.3898,0.3814,0.3811,0.3809,0.3807,0.356,0.3554,0.3548,0,0,0,0,0,0,0,0,0,0,0,0,0,0.3843,0.383,0.3919,0.3874,0.387,0.3899,0.3898,0.3898,0.3814,0.3811,0.3808,0.3806,0.3561,0.3554,0.3547,0.3561,0,0,0.3525,0.3522,0,0,0,0,0,0,0,0,0.3842,0.3846,0.3881,0.3877,0.3873,0.3856,0.3774,0.3774,0.3815,0.3835,0.3808,0.3804,0.3638,0.3625,0.3631,0.3549,0.3539,0.3524,0.352,0.3517,0.3515,0,0,0,0,0,0,0,0.3841,0.3846,0.3911,0.3881,0.3876,0.3835,0.3835,0.3774,0.3749,0.3833,0.3827,0.3826,0.3634,0.3638,0.3623,0.3535,0.3525,0.3518,0.3514,0.3511,0.348,0.3483,0,0,0,0,0,0,0.3851,0.3846,0.3911,0.391,0.385,0.3839,0.3839,0.3864,0.3755,0.3737,0.3829,0.3822,0.3652,0.3632,0.3614,0.3597,0.3517,0.351,0.3506,0.3477,0.3481,0.3485,0,0,0,0,0,0,0.385,0.3858,0.3912,0.3875,0.3879,0.3844,0.3873,0.3865,0.3865,0.3754,0.3731,0.3836,0.3649,0.3624,0.3554,0.3587,0.3507,0.35,0.3472,0.3478,0.3483,0.3578,0,0,0,0,0,0,0.3848,0.3859,0.3887,0.3878,0.3882,0.3938,0.3876,0.3867,0.3869,0.3861,0.3753,0.3727,0.3645,0.3566,0.3547,0.3575,0.3495,0.3468,0.3475,0.3481,0.3571,0.3586,0.36,0,0,0,0,0,0.3845,0.3883,0.389,0.3897,0.3921,0.394,0.394,0.3902,0.3873,0.3889,0.3803,0.373,0.3596,0.3561,0.3539,0.3566,0.3465,0.3473,0.3481,0.3564,0.3583,0.3599,0,0,0,0,0,0,0.3886,0.3878,0.3884,0.3929,0.3943,0.3926,0.3929,0.392,0.3876,0.3849,0.3744,0.3714,0.3679,0.3624,0.3589,0.3589,0.3532,0.3536,0.3604,0.3621,0.3635,0.3631,0.3489,0,0,0,0,0,0.3909,0.3916,0.3929,0.397,0.3971,0.3961,0.3965,0.395,0.3909,0.3888,0.3822,0.3754,0.3704,0.3657,0.3612,0.3587,0.3574,0.3608,0.3622,0.3634,0.3624,0.3674,0.3691,0.3511,0.3511,0.3511,0,0,0.3933,0.3935,0.394,0.3975,0.3971,0.3972,0.3955,0.3966,0.3962,0.3864,0.3831,0.3797,0.3714,0.3692,0.3674,0.3635,0.3683,0.3644,0.3654,0.3636,0.3684,0.3701,0.3716,0.3516,0.3515,0.3514,0,0,0.3955,0.3992,0.3985,0.3994,0.4,0.3997,0.4007,0.4008,0.4,0.3984,0.3921,0.391,0.3827,0.3789,0.375,0.3824,0.3767,0.3827,0.3868,0.3919,0.3933,0.3945,0.3958,0.3971,0.3822,0.3822,0.3822,0,0.398,0.3987,0.3995,0.399,0.3987,0.4006,0.4002,0.4012,0.3996,0.3991,0.3979,0.3931,0.3875,0.3839,0.3871,0.3851,0.3858,0.3795,0.3935,0.3946,0.3957,0.3967,0.398,0.3828,0.3827,0.3826,0.3826,0,0.3976,0.3989,0.3989,0.3976,0.399,0.3997,0.4006,0.4023,0.4027,0.4037,0.4045,0.4012,0.3975,0.3992,0.3934,0.3991,0.3965,0.3954,0.388,0.3981,0.3985,0.3997,0.3836,0.3834,0.3832,0.3831,0,0,0.3985,0.398,0.3977,0.3962,0.3978,0.3981,0.399,0.4004,0.4,0.4045,0.4048,0.4045,0.4067,0.4031,0.4009,0.4059,0.4154,0.404,0.404,0.4033,0.4246,0.4141,0.4142,0.417,0.4173,0.4175,0.4219,0,0.3968,0.3948,0.3954,0.3939,0.3922,0.3943,0.3949,0.3972,0.3996,0.4016,0.4051,0.4052,0.4069,0.4061,0.4124,0.4141,0.4188,0.4141,0.4165,0.4165,0.4044,0.4154,0.4023,0.4044,0.4229,0.4231,0.4232,0,0.3928,0.3923,0.3901,0.3894,0.389,0.3891,0.3892,0.3906,0.395,0.3975,0.402,0.4044,0.4108,0.4121,0.4229,0.4199,0.4229,0.426,0.4262,0.4131,0.4081,0.3976,0.4056,0.3935,0.4249,0.4248,0.4246,0,0.3876,0.3871,0.3848,0.3846,0.3855,0.3847,0.3856,0.389,0.3897,0.3952,0.3971,0.4059,0.4089,0.4184,0.4264,0.4249,0.4388,0.4364,0.4296,0.4288,0.416,0.4135,0.4103,0.4446,0.4446,0.4446,0.4446,0,0.3825,0.3806,0.3819,0.3804,0.3783,0.3805,0.3791,0.3817,0.3854,0.3865,0.3949,0.3973,0.4115,0.4202,0.4278,0.4329,0.4403,0.4314,0.4304,0.419,0.4169,0.404,0.3987,0.4447,0.4447,0.4447,0.4447,0,0.3759,0.3769,0.3741,0.3751,0.375,0.3733,0.3742,0.3735,0.3788,0.3802,0.3821,0.3927,0.4045,0.4176,0.4315,0.4312,0.4262,0.4381,0.4219,0.4187,0.3955,0.3912,0.3746,0.3641,0.4288,0.4286,0.4284,0,0.3717,0.3697,0.3695,0.3678,0.3678,0.3662,0.365,0.3693,0.3692,0.3764,0.3767,0.3882,0.3942,0.4108,0.4176,0.4277,0.4189,0.4149,0.4088,0.3929,0.3877,0.3753,0.3669,0.3967,0.3963,0.396,0.3957,0,0.3644,0.3648,0.3632,0.3598,0.3575,0.355,0.3541,0.3532,0.3581,0.3607,0.3634,0.3688,0.3837,0.3877,0.4004,0.4048,0.3931,0.4072,0.3973,0.3671,0.3472,0.3369,0.3931,0.3926,0.3929,0.3931,0.3933,0.3934,0.3586,0.3558,0.3532,0.3491,0.3469,0.342,0.3371,0.3377,0.3362,0.3369,0.3479,0.352,0.3631,0.3786,0.3802,0.3689,0.3694,0.3579,0.3557,0.346,0.3294,0.3758,0.3696,0.3698,0.3699,0.37,0.3702,0,0.3481,0.3457,0.3422,0.335,0.329,0.3319,0.3276,0.3216,0.3165,0.3232,0.3251,0.3309,0.3342,0.3419,0.3354,0.3204,0.3111,0.3114,0.2938,0.2895,0.3376,0.3297,0.3065,0.3065,0.3065,0.3065,0.3065,0.3065,0.3418,0.3343,0.3322,0.3184,0.3146,0.3032,0.2998,0.2941,0.2958,0.2903,0.2906,0.2965,0.3054,0.3066,0.2909,0.2842,0.2631,0.2517,0.2506,0.2876,0.2918,0.2958,0.2873,0.2555,0.2554,0.1938,0.1933,0.1929]},{"header":{"parameterUnit":"m.s-1","parameterCategory":2,"la1":30.2991,"la2":30.254,"lo1":-89.0895,"lo2":-89.0444,"dy":0.0017,"dx":0.0017,"nx":28,"ny":28,"refTime":"2026-02-09T03:00:00:Z","depth":"0","parameterNumber":3,"parameterNumberName":"V-component_of_CURRENTS"},"data":[0,0,0,0,0,0,0,0,0,0,0,0,0,0,0,0,0,0,0,0,0,0,0,0,0,0,0,0,0,0,0,0,0,0,0,0,0,0,0,0,0,0,0,0,0,0,0,0,0,0,0,0,0,0,0,0,0,0,0.0961,0.0961,0,0.0926,0.0925,0.0925,0.0836,0.0834,0.0833,0.0831,0.0596,0.0591,0.0587,0,0,0,0,0,0,0,0,0,0,0,0,0,0.09,0.0902,0.0961,0.0961,0.096,0.0926,0.0925,0.0925,0.0836,0.0834,0.0832,0.083,0.0597,0.0592,0.0586,0,0,0,0,0,0,0,0,0,0,0,0,0,0.0901,0.0903,0.0961,0.0913,0.0908,0.0926,0.0925,0.0924,0.0837,0.0834,0.0832,0.0829,0.0599,0.0592,0.0585,0.0596,0,0,0.0564,0.0561,0,0,0,0,0,0,0,0,0.0901,0.0903,0.092,0.0916,0.0911,0.0884,0.0818,0.0805,0.0838,0.0863,0.0831,0.0828,0.0676,0.0663,0.0663,0.0585,0.0575,0.0564,0.0559,0.0556,0.0554,0,0,0,0,0,0,0,0.0901,0.0904,0.0946,0.092,0.0915,0.0876,0.0873,0.0815,0.078,0.086,0.0854,0.0853,0.0672,0.067,0.0656,0.0571,0.0564,0.0558,0.0553,0.0551,0.0461,0.0462,0,0,0,0,0,0,0.0914,0.0905,0.0947,0.0945,0.0901,0.0879,0.0876,0.0894,0.0785,0.0768,0.0855,0.0849,0.0683,0.0665,0.0647,0.0637,0.0557,0.055,0.0546,0.0459,0.0461,0.0463,0,0,0,0,0,0,0.0914,0.0919,0.0948,0.0923,0.0924,0.0884,0.0904,0.0895,0.0882,0.0784,0.0761,0.0851,0.0681,0.0657,0.0589,0.0627,0.0547,0.0541,0.0457,0.046,0.0462,0.0624,0,0,0,0,0,0,0.0913,0.092,0.0936,0.0925,0.0926,0.095,0.0906,0.0896,0.0887,0.0878,0.0772,0.0749,0.0677,0.06,0.0582,0.0616,0.0535,0.0455,0.0458,0.0461,0.0617,0.0632,0.0645,0,0,0,0,0,0.0911,0.0934,0.0938,0.0942,0.0951,0.0951,0.0947,0.0908,0.089,0.0887,0.0818,0.0751,0.0609,0.0596,0.0574,0.0607,0.0453,0.0457,0.0461,0.061,0.0629,0.0645,0,0,0,0,0,0,0.0927,0.0928,0.093,0.0958,0.0955,0.0935,0.093,0.0919,0.0871,0.0856,0.0762,0.0734,0.0693,0.0629,0.0617,0.0593,0.0525,0.0525,0.0646,0.0663,0.0677,0.0746,0.0529,0,0,0,0,0,0.0943,0.0956,0.0955,0.0982,0.0977,0.0962,0.0958,0.0942,0.0903,0.0881,0.0824,0.0757,0.0701,0.0662,0.0603,0.0583,0.0547,0.0594,0.0609,0.0621,0.0664,0.0653,0.0671,0.0476,0.0476,0.0476,0,0,0.0962,0.0964,0.0974,0.0985,0.0977,0.0998,0.0951,0.0952,0.0983,0.0861,0.0871,0.0799,0.0706,0.0686,0.0663,0.063,0.0652,0.0626,0.0638,0.0674,0.0659,0.0679,0.0696,0.0479,0.0478,0.0478,0,0,0.1005,0.1004,0.1027,0.1028,0.1026,0.1021,0.1026,0.1022,0.102,0.1023,0.0948,0.0914,0.0829,0.0792,0.0753,0.0815,0.0728,0.0782,0.0908,0.0897,0.0914,0.0928,0.0886,0.0896,0.079,0.0791,0.0791,0,0.1025,0.1064,0.1034,0.1059,0.1069,0.1039,0.1075,0.1083,0.1068,0.1091,0.1039,0.0987,0.0897,0.0897,0.0913,0.0852,0.0815,0.0848,0.0919,0.0932,0.0944,0.0898,0.0906,0.0799,0.0798,0.0797,0.0796,0,0.109,0.1118,0.1127,0.1154,0.1162,0.1182,0.119,0.1212,0.1211,0.1233,0.1247,0.1155,0.1126,0.1093,0.1014,0.106,0.0994,0.0937,0.0882,0.0974,0.0918,0.0924,0.0811,0.0808,0.0805,0.0803,0,0,0.1132,0.1167,0.117,0.1196,0.1212,0.1225,0.1284,0.1335,0.139,0.1394,0.1463,0.1399,0.1373,0.1331,0.124,0.1235,0.1262,0.1132,0.1128,0.1105,0.1216,0.1151,0.1149,0.1211,0.1213,0.1215,0.1135,0,0.1188,0.1251,0.126,0.1327,0.1352,0.1356,0.1415,0.1463,0.149,0.155,0.1525,0.1532,0.1456,0.1425,0.1426,0.1304,0.1288,0.1288,0.112,0.1115,0.1058,0.1159,0.1111,0.1036,0.114,0.1141,0.1142,0,0.1234,0.1274,0.1346,0.1408,0.1421,0.1466,0.1544,0.1596,0.1677,0.1702,0.1747,0.1712,0.1725,0.162,0.1546,0.1545,0.1408,0.1315,0.1308,0.1207,0.1064,0.0963,0.1041,0.0848,0.1149,0.1149,0.1148,0,0.124,0.1322,0.138,0.14,0.1476,0.1521,0.1565,0.1648,0.1715,0.1796,0.1846,0.1867,0.1853,0.1758,0.1603,0.156,0.1502,0.1401,0.122,0.121,0.1122,0.1102,0.1014,0.1344,0.1344,0.1345,0.1345,0,0.1266,0.1309,0.139,0.1417,0.1512,0.1547,0.1651,0.1707,0.1806,0.191,0.1918,0.1986,0.1887,0.1842,0.1676,0.1504,0.156,0.1284,0.1211,0.1172,0.1158,0.0945,0.0855,0.1342,0.1342,0.1343,0.1343,0,0.1242,0.1293,0.1365,0.1467,0.1507,0.1567,0.1694,0.1778,0.186,0.1987,0.2016,0.2085,0.2045,0.1928,0.1761,0.1583,0.1299,0.1316,0.1273,0.1199,0.0833,0.0754,0.0628,0.0549,0.1107,0.1106,0.1104,0,0.1232,0.1267,0.1389,0.1451,0.1499,0.16,0.1683,0.1791,0.1892,0.2052,0.2123,0.2142,0.2192,0.1969,0.1685,0.1424,0.1247,0.114,0.1057,0.0853,0.0711,0.0662,0.0602,0.098,0.0978,0.0976,0.0975,0,0.1225,0.1266,0.1338,0.146,0.1556,0.1677,0.1803,0.1894,0.2037,0.2152,0.2298,0.2351,0.2172,0.1945,0.1596,0.1378,0.1012,0.1088,0.0899,0.0654,0.0576,0.045,0.0966,0.0958,0.096,0.0961,0.0962,0.0962,0.1225,0.1275,0.1373,0.1492,0.1605,0.1754,0.1855,0.2003,0.2169,0.2366,0.2409,0.2514,0.2152,0.1704,0.1408,0.0802,0.0858,0.0585,0.0518,0.0496,0.0409,0.0888,0.0784,0.0785,0.0785,0.0786,0.0786,0,0.1234,0.13,0.1404,0.1553,0.1673,0.1741,0.1943,0.206,0.2249,0.2439,0.2567,0.2449,0.1966,0.1482,0.0687,0.0295,0.0177,0.0099,0.0016,-0.0011,0.0421,0.0403,0.0185,0.0185,0.0185,0.0185,0.0186,0.0186,0.1248,0.1334,0.1395,0.1586,0.1694,0.187,0.1991,0.2167,0.2339,0.2549,0.263,0.2688,0.2264,0.0904,-0.0008,-0.0188,-0.0418,-0.0463,-0.0545,-0.028,-0.0239,-0.0201,-0.0239,-0.0588,-0.0589,-0.0954,-0.0958,-0.0961]}],[{"header":{"parameterUnit":"m.s-1","parameterCategory":2,"la1":30.2991,"la2":30.254,"lo1":-89.0895,"lo2":-89.0444,"dy":0.0017,"dx":0.0017,"nx":28,"ny":28,"refTime":"2026-02-09T03:00:00:Z","depth":"2","parameterNumber":2,"parameterNumberName":"U-component_of_CURRENTS"},"data":[0,0,0,0,0,0,0,0,0,0,0,0,0,0,0,0,0,0,0,0,0,0,0,0,0,0,0,0,0,0,0,0,0,0,0,0,0,0,0,0,0,0,0,0,0,0,0,0,0,0,0,0,0,0,0,0,0,0,0.1781,0.1782,0,0.174,0.1738,0.1736,0.1731,0.1733,0.1735,0.1737,0.1989,0.1994,0.1998,0,0,0,0,0,0,0,0,0,0,0,0,0,0.1814,0.1812,0.1781,0.1782,0.1783,0.174,0.1738,0.1735,0.1731,0.1733,0.1736,0.1738,0.1988,0.1993,0.1999,0,0,0,0,0,0,0,0,0,0,0,0,0,0.1771,0.1812,0.1781,0.179,0.1791,0.174,0.1737,0.1735,0.173,0.1733,0.1736,0.1739,0.1986,0.1993,0.2,0.198,0,0,0.2021,0.2024,0,0,0,0,0,0,0,0,0.1774,0.1768,0.1787,0.1789,0.1791,0.176,0.1843,0.1838,0.1729,0.1734,0.1737,0.1741,0.195,0.196,0.1914,0.1991,0.2002,0.2022,0.2026,0.2029,0.2031,0,0,0,0,0,0,0,0.1777,0.177,0.1746,0.1789,0.1791,0.1783,0.1778,0.1838,0.1815,0.1733,0.1738,0.1762,0.1951,0.1907,0.1921,0.2006,0.2022,0.2028,0.2032,0.2035,0.2286,0.2289,0,0,0,0,0,0,0.1817,0.1772,0.1747,0.1746,0.1811,0.1781,0.1775,0.1752,0.1808,0.1823,0.1759,0.1762,0.1893,0.1913,0.1931,0.2126,0.2029,0.2036,0.204,0.2284,0.2287,0.2289,0,0,0,0,0,0,0.1817,0.1813,0.1749,0.1777,0.177,0.1779,0.1751,0.175,0.1767,0.1828,0.1845,0.179,0.1896,0.1921,0.207,0.2129,0.2039,0.2046,0.2281,0.2285,0.2288,0.2382,0,0,0,0,0,0,0.1817,0.1812,0.1789,0.1777,0.1771,0.1747,0.175,0.1747,0.1783,0.1787,0.186,0.1881,0.1901,0.2059,0.2077,0.2137,0.2051,0.2278,0.2283,0.2287,0.2375,0.2388,0.2399,0,0,0,0,0,0.1817,0.1809,0.1786,0.1785,0.1743,0.175,0.1742,0.1749,0.1783,0.1777,0.1875,0.1882,0.2099,0.2068,0.2088,0.2152,0.2276,0.2281,0.2287,0.237,0.2386,0.2398,0,0,0,0,0,0,0.1802,0.1809,0.1784,0.177,0.1768,0.1757,0.1766,0.1779,0.1832,0.186,0.1929,0.1958,0.2101,0.2115,0.2079,0.2234,0.2181,0.2191,0.2238,0.2253,0.2264,0.2266,0.2057,0,0,0,0,0,0.1787,0.1785,0.1781,0.1767,0.1777,0.1773,0.1778,0.1778,0.1836,0.1857,0.1919,0.2006,0.2118,0.2184,0.2243,0.2344,0.2298,0.2391,0.2402,0.2412,0.2426,0.2361,0.2367,0.2307,0.2307,0.2307,0,0,0.1764,0.1784,0.1768,0.1766,0.1763,0.1777,0.1781,0.1799,0.1837,0.1887,0.1975,0.2052,0.2155,0.2264,0.2327,0.2301,0.2414,0.2419,0.2427,0.2436,0.2367,0.2372,0.2377,0.2311,0.231,0.231,0,0,0.1764,0.175,0.1753,0.1765,0.1791,0.1794,0.1823,0.1828,0.1862,0.1952,0.202,0.213,0.2265,0.2334,0.2404,0.2514,0.2474,0.2551,0.2624,0.2561,0.2564,0.2566,0.2544,0.2543,0.2559,0.256,0.256,0,0.1762,0.1741,0.1753,0.1781,0.1814,0.1825,0.1848,0.1873,0.1929,0.1975,0.2002,0.2186,0.2288,0.244,0.2527,0.2539,0.2516,0.2567,0.2572,0.2573,0.2574,0.2549,0.2547,0.2565,0.2564,0.2564,0.2563,0,0.1727,0.175,0.1775,0.1809,0.1836,0.1861,0.1915,0.1944,0.2008,0.2033,0.2168,0.2267,0.2373,0.2443,0.2569,0.2654,0.2643,0.2586,0.2528,0.2585,0.2557,0.2553,0.2572,0.257,0.2569,0.2567,0,0,0.1679,0.1739,0.1754,0.178,0.1859,0.1872,0.1968,0.2032,0.2082,0.2141,0.221,0.2436,0.2455,0.2538,0.2636,0.2658,0.2708,0.2683,0.2677,0.2649,0.2612,0.2592,0.2585,0.2655,0.2654,0.2654,0.26,0,0.167,0.1706,0.1759,0.182,0.1849,0.1923,0.2003,0.2066,0.2139,0.2192,0.2294,0.2404,0.25,0.2584,0.2614,0.2705,0.27,0.273,0.2574,0.257,0.2532,0.2579,0.2419,0.2357,0.2596,0.2595,0.2594,0,0.1629,0.1672,0.1716,0.1829,0.185,0.1901,0.2007,0.208,0.2182,0.2244,0.2323,0.2387,0.2535,0.2545,0.2622,0.2648,0.266,0.2676,0.267,0.2613,0.2541,0.2335,0.2339,0.2587,0.2587,0.2588,0.2589,0,0.1563,0.1662,0.1699,0.1731,0.184,0.1906,0.1982,0.2092,0.2174,0.2281,0.2334,0.241,0.2503,0.2491,0.2618,0.2621,0.2636,0.2581,0.2532,0.253,0.2344,0.2327,0.2539,0.2539,0.254,0.254,0.254,0,0.1543,0.1578,0.1671,0.1691,0.1759,0.1865,0.1959,0.2045,0.2169,0.2252,0.2363,0.2429,0.2506,0.2545,0.2575,0.258,0.2564,0.2563,0.2512,0.2379,0.2366,0.2517,0.2515,0.2538,0.2538,0.2539,0.2539,0,0.1474,0.1521,0.1583,0.1697,0.1736,0.1796,0.197,0.2022,0.2167,0.2274,0.2329,0.2478,0.2527,0.2548,0.2559,0.2551,0.2523,0.2502,0.2387,0.2326,0.2464,0.2468,0.2408,0.2407,0.2406,0.2405,0.2404,0,0.1435,0.1457,0.1572,0.1616,0.1686,0.1789,0.1855,0.2011,0.2087,0.2297,0.2336,0.2448,0.2482,0.2498,0.2479,0.2419,0.2469,0.2263,0.2222,0.2493,0.2449,0.2455,0.246,0.2017,0.2013,0.201,0.2008,0,0.1402,0.1451,0.1505,0.1588,0.1667,0.1731,0.1853,0.1891,0.2071,0.2157,0.2273,0.232,0.2381,0.229,0.2277,0.2223,0.2261,0.2197,0.2455,0.2097,0.2124,0.2082,0.2099,0.198,0.1982,0.1984,0.1986,0.1987,0.1403,0.1427,0.151,0.1575,0.1658,0.1684,0.1692,0.178,0.1851,0.1945,0.2077,0.2097,0.2162,0.2039,0.1976,0.1951,0.2083,0.2005,0.2013,0.2025,0.2011,0.2037,0.1875,0.1877,0.1879,0.1881,0.1882,0,0.1398,0.1424,0.1491,0.1568,0.1605,0.166,0.1693,0.1643,0.1637,0.1745,0.1792,0.1676,0.1656,0.1707,0.164,0.1662,0.1626,0.1587,0.1533,0.1563,0.159,0.1552,0.1294,0.1292,0.129,0.1288,0,0,0.1391,0.1419,0.1427,0.1478,0.1539,0.1514,0.148,0.1402,0.1417,0.1354,0.1387,0.1529,0.1662,0.1441,0.1432,0.1356,0.1434,0.1298,0.1776,0.1741,0.1764,0.1848,0.1827,0,0,0,0,0]},{"header":{"parameterUnit":"m.s-1","parameterCategory":2,"la1":30.2991,"la2":30.254,"lo1":-89.0895,"lo2":-89.0444,"dy":0.0017,"dx":0.0017,"nx":28,"ny":28,"refTime":"2026-02-09T03:00:00:Z","depth":"2","parameterNumber":3,"parameterNumberName":"V-component_of_CURRENTS"},"data":[0,0,0,0,0,0,0,0,0,0,0,0,0,0,0,0,0,0,0,0,0,0,0,0,0,0,0,0,0,0,0,0,0,0,0,0,0,0,0,0,0,0,0,0,0,0,0,0,0,0,0,0,0,0,0,0,0,0,-0.0026,-0.0027,0,-0.0105,-0.0106,-0.0107,-0.0144,-0.0144,-0.0144,-0.0143,-0.0126,-0.0126,-0.0126,0,0,0,0,0,0,0,0,0,0,0,0,0,0.0008,0.0008,-0.0026,-0.0027,-0.0027,-0.0105,-0.0106,-0.0107,-0.0144,-0.0144,-0.0144,-0.0143,-0.0126,-0.0126,-0.0126,0,0,0,0,0,0,0,0,0,0,0,0,0,-0.0035,0.0008,-0.0026,-0.0053,-0.0056,-0.0104,-0.0106,-0.0108,-0.0144,-0.0144,-0.0143,-0.0143,-0.0126,-0.0126,-0.0126,-0.0134,0,0,-0.0125,-0.0125,0,0,0,0,0,0,0,0,-0.0032,-0.0036,-0.0048,-0.0051,-0.0055,-0.0112,-0.0088,-0.0111,-0.0144,-0.0114,-0.0143,-0.0143,-0.0111,-0.0112,-0.0133,-0.0133,-0.0132,-0.0125,-0.0125,-0.0125,-0.0125,0,0,0,0,0,0,0,-0.0029,-0.0034,-0.006,-0.0049,-0.0053,-0.009,-0.0095,-0.0094,-0.0114,-0.0116,-0.0119,-0.0123,-0.0112,-0.0134,-0.0133,-0.0132,-0.0125,-0.0125,-0.0125,-0.0125,-0.0107,-0.0107,0,0,0,0,0,0,-0.001,-0.003,-0.0058,-0.0062,-0.0039,-0.0091,-0.0097,-0.0096,-0.0117,-0.0119,-0.0123,-0.0124,-0.0134,-0.0133,-0.0132,-0.0115,-0.0125,-0.0125,-0.0125,-0.0107,-0.0107,-0.0107,0,0,0,0,0,0,-0.0009,-0.0011,-0.0054,-0.0046,-0.0054,-0.0091,-0.0091,-0.0098,-0.0124,-0.0122,-0.0124,-0.0142,-0.0134,-0.0133,-0.0102,-0.0115,-0.0125,-0.0124,-0.0108,-0.0107,-0.0107,-0.0096,0,0,0,0,0,0,-0.0007,-0.001,-0.0011,-0.0045,-0.0053,-0.0073,-0.0091,-0.01,-0.0126,-0.0128,-0.0139,-0.0137,-0.0133,-0.0102,-0.0102,-0.0115,-0.0124,-0.0108,-0.0108,-0.0107,-0.0097,-0.0095,-0.0094,0,0,0,0,0,-0.0006,-0.0008,-0.001,-0.0014,-0.005,-0.0072,-0.008,-0.0108,-0.0127,-0.0132,-0.0121,-0.0137,-0.0099,-0.01,-0.01,-0.0114,-0.0108,-0.0108,-0.0107,-0.0098,-0.0096,-0.0094,0,0,0,0,0,0,-0.0002,-0.0012,-0.0016,-0.0023,-0.0039,-0.0077,-0.009,-0.0113,-0.0117,-0.0115,-0.0119,-0.0115,-0.0093,-0.0102,-0.0104,-0.0107,-0.0113,-0.0112,-0.0106,-0.0104,-0.0103,-0.0121,-0.0124,0,0,0,0,0,0.0002,0.0002,-0.0014,-0.0021,-0.0026,-0.0061,-0.0078,-0.0092,-0.01,-0.0105,-0.0116,-0.0114,-0.0094,-0.0094,-0.008,-0.0082,-0.0103,-0.0094,-0.0093,-0.0091,-0.0106,-0.012,-0.0122,-0.0104,-0.0104,-0.0104,0,0,0.0003,-0.0005,-0.0004,-0.0019,-0.0038,-0.0048,-0.007,-0.0089,-0.0117,-0.0098,-0.0132,-0.0101,-0.0087,-0.0076,-0.0072,-0.0085,-0.0109,-0.009,-0.0089,-0.0105,-0.012,-0.0122,-0.0123,-0.0104,-0.0104,-0.0104,0,0,0.0007,-0.0002,0.0005,-0.0003,-0.002,-0.0045,-0.0049,-0.0084,-0.0117,-0.0135,-0.0112,-0.0085,-0.01,-0.0076,-0.0069,-0.0056,-0.0088,-0.0059,-0.0082,-0.0095,-0.0097,-0.0099,-0.0136,-0.0141,-0.0073,-0.0073,-0.0073,0,0.0001,0.0016,0.0,0.0003,-0.0003,-0.0041,-0.004,-0.0087,-0.0114,-0.0126,-0.0145,-0.0129,-0.0108,-0.0078,-0.0065,-0.0056,-0.0074,-0.0087,-0.0094,-0.0096,-0.0099,-0.0136,-0.0142,-0.0072,-0.0072,-0.0072,-0.0072,0,0.0032,0.0027,0.0027,0.0021,0.0007,0.0002,-0.0045,-0.007,-0.012,-0.0158,-0.0162,-0.0142,-0.0132,-0.012,-0.0089,-0.0082,-0.0093,-0.0078,-0.0101,-0.01,-0.014,-0.0146,-0.0071,-0.0071,-0.0072,-0.0072,0,0,0.0044,0.0048,0.0047,0.0056,0.0022,0.002,-0.0028,-0.0064,-0.0076,-0.0147,-0.0162,-0.0151,-0.0152,-0.0141,-0.0106,-0.0116,-0.0135,-0.0106,-0.0107,-0.0149,-0.0185,-0.0154,-0.0159,-0.0118,-0.0119,-0.0119,-0.021,0,0.0067,0.0096,0.0078,0.0082,0.0094,0.0053,0.0018,-0.0021,-0.0072,-0.0098,-0.0138,-0.0139,-0.0166,-0.0134,-0.0158,-0.0118,-0.0151,-0.0114,-0.0175,-0.0178,-0.0155,-0.0164,-0.0147,-0.0221,-0.0216,-0.0217,-0.0218,0,0.0104,0.012,0.0143,0.0139,0.014,0.0121,0.0103,0.0064,0.0006,-0.0032,-0.0076,-0.0102,-0.0132,-0.0143,-0.0199,-0.0174,-0.019,-0.0189,-0.0192,-0.0175,-0.0159,-0.0219,-0.0234,-0.0229,-0.0228,-0.0228,-0.0227,0,0.0152,0.0158,0.0182,0.0184,0.0171,0.0161,0.0134,0.0089,0.0069,0.0007,0.0002,-0.0074,-0.0089,-0.0155,-0.0186,-0.0194,-0.023,-0.0244,-0.0252,-0.0251,-0.0256,-0.0253,-0.0291,-0.0291,-0.0291,-0.0291,-0.029,0,0.0186,0.0202,0.0208,0.0224,0.025,0.0208,0.0213,0.0178,0.014,0.0148,0.0033,0.0051,-0.0087,-0.0123,-0.0181,-0.0241,-0.0252,-0.0268,-0.027,-0.0251,-0.0247,-0.0264,-0.026,-0.0294,-0.0293,-0.0293,-0.0292,0,0.022,0.0228,0.0258,0.0264,0.027,0.0278,0.026,0.0272,0.021,0.0223,0.02,0.0127,0.0063,-0.006,-0.0128,-0.0214,-0.027,-0.0275,-0.0256,-0.0253,-0.0301,-0.0295,-0.0354,-0.0354,-0.0353,-0.0353,-0.0353,0,0.024,0.0262,0.0299,0.032,0.0313,0.0325,0.0344,0.0306,0.0329,0.0302,0.0335,0.026,0.0264,0.0117,-0.0048,-0.0205,-0.0212,-0.0283,-0.0297,-0.0311,-0.0307,-0.0301,-0.0296,-0.0316,-0.0316,-0.0315,-0.0315,0,0.0273,0.028,0.0306,0.0363,0.0389,0.0441,0.0463,0.0514,0.0491,0.0527,0.0598,0.0598,0.0409,0.027,0.0022,-0.0084,-0.0275,-0.0279,-0.0294,-0.0282,-0.0276,-0.0271,-0.0267,-0.0311,-0.0311,-0.0312,-0.0312,-0.0312,0.0285,0.0313,0.035,0.0407,0.0445,0.0545,0.0621,0.0689,0.0788,0.0849,0.0829,0.0825,0.0568,0.0274,0.0065,-0.0197,-0.0208,-0.0302,-0.0304,-0.0306,-0.0264,-0.0255,-0.0281,-0.0282,-0.0282,-0.0282,-0.0282,0,0.031,0.0348,0.0396,0.0475,0.0543,0.0557,0.0697,0.0794,0.0972,0.1023,0.1077,0.0861,0.0666,0.0378,0.0004,-0.0217,-0.0258,-0.0288,-0.0294,-0.0297,-0.0299,-0.0257,-0.0274,-0.0274,-0.0274,-0.0275,0,0,0.0327,0.0389,0.0433,0.0562,0.0607,0.074,0.0847,0.1002,0.1091,0.119,0.1181,0.1091,0.075,0.0486,0.0163,-0.0041,-0.0113,-0.0088,-0.0075,-0.0047,-0.0046,-0.0293,-0.0229,0,0,0,0,0]}],[{"header":{"parameterUnit":"m.s-1","parameterCategory":2,"la1":30.2991,"la2":30.254,"lo1":-89.0895,"lo2":-89.0444,"dy":0.0017,"dx":0.0017,"nx":28,"ny":28,"refTime":"2026-02-09T03:00:00:Z","depth":"4","parameterNumber":2,"parameterNumberName":"U-component_of_CURRENTS"},"data":[0,0,0,0,0,0,0,0,0,0,0,0,0,0,0,0,0,0,0,0,0,0,0,0,0,0,0,0,0,0,0,0,0,0,0,0,0,0,0,0,0,0,0,0,0,0,0,0,0,0,0,0,0,0,0,0,0,0,0.0856,0.0857,0,0.0873,0.0873,0.0873,0.0934,0.0936,0.0938,0.0939,0.1067,0.1069,0.1071,0,0,0,0,0,0,0,0,0,0,0,0,0,0.0849,0.0849,0.0856,0.0857,0.0857,0.0873,0.0873,0.0873,0.0934,0.0936,0.0938,0.094,0.1066,0.1069,0.1071,0,0,0,0,0,0,0,0,0,0,0,0,0,0.0855,0.0849,0.0856,0.0891,0.0895,0.0873,0.0873,0.0873,0.0934,0.0936,0.0939,0.0941,0.1066,0.1068,0.1071,0.104,0,0,0.108,0.1081,0,0,0,0,0,0,0,0,0.0855,0.0855,0.0886,0.0889,0.0893,0.0906,0.0918,0.0935,0.0933,0.0916,0.0939,0.0942,0.1023,0.103,0.1022,0.1046,0.1051,0.108,0.1082,0.1083,0.1084,0,0,0,0,0,0,0,0.0855,0.0855,0.086,0.0886,0.0891,0.0897,0.0901,0.092,0.0956,0.0918,0.0923,0.0928,0.1026,0.1019,0.1026,0.1053,0.108,0.1083,0.1084,0.1085,0.1191,0.1192,0,0,0,0,0,0,0.0856,0.0854,0.086,0.0861,0.0883,0.0895,0.0899,0.0897,0.0954,0.0964,0.0926,0.0931,0.1013,0.1023,0.1031,0.1067,0.1083,0.1086,0.1087,0.119,0.1191,0.1192,0,0,0,0,0,0,0.0856,0.0856,0.0859,0.0861,0.0862,0.0894,0.0891,0.0897,0.0922,0.0959,0.0972,0.095,0.1016,0.1027,0.1089,0.1071,0.1087,0.109,0.1188,0.119,0.1192,0.1096,0,0,0,0,0,0,0.0855,0.0855,0.0855,0.086,0.0862,0.0867,0.0889,0.0895,0.0921,0.0928,0.0983,0.0995,0.1018,0.1085,0.1092,0.1075,0.1092,0.1187,0.1189,0.1191,0.1097,0.1094,0.1091,0,0,0,0,0,0.0855,0.0842,0.0854,0.0855,0.086,0.0867,0.0869,0.0897,0.092,0.0929,0.098,0.0995,0.1103,0.1088,0.1096,0.1079,0.1186,0.1188,0.1191,0.1099,0.1094,0.1091,0,0,0,0,0,0,0.0833,0.0847,0.0861,0.0852,0.0871,0.0879,0.0886,0.0906,0.0946,0.0965,0.1006,0.1021,0.1079,0.11,0.1082,0.1123,0.1148,0.1152,0.1075,0.1071,0.1068,0.1107,0.1094,0,0,0,0,0,0.0827,0.0826,0.0844,0.0839,0.085,0.0871,0.0879,0.0901,0.0934,0.0955,0.0993,0.1042,0.1085,0.1098,0.115,0.1152,0.1192,0.1154,0.115,0.1147,0.119,0.1223,0.1225,0.12,0.12,0.12,0,0,0.0818,0.0824,0.0825,0.0835,0.085,0.0865,0.0883,0.0901,0.0916,0.0962,0.1003,0.1047,0.1097,0.112,0.1142,0.1132,0.1168,0.115,0.1146,0.1192,0.1226,0.1228,0.123,0.1202,0.1202,0.1201,0,0,0.0802,0.0807,0.081,0.0824,0.0851,0.0864,0.0877,0.0903,0.0923,0.095,0.1006,0.1053,0.1086,0.1124,0.1144,0.1157,0.1172,0.1157,0.1135,0.1164,0.1166,0.1168,0.1178,0.1183,0.1123,0.1123,0.1123,0,0.0793,0.0797,0.0812,0.0821,0.0837,0.087,0.0886,0.0898,0.0942,0.0967,0.0965,0.1061,0.1093,0.1141,0.1141,0.1147,0.1162,0.1129,0.1156,0.1159,0.1163,0.1174,0.118,0.1118,0.1119,0.1119,0.112,0,0.0786,0.0795,0.0797,0.0824,0.0841,0.0855,0.0884,0.0913,0.0932,0.0949,0.1011,0.1046,0.1112,0.1099,0.1115,0.1158,0.1157,0.1163,0.1153,0.1159,0.1171,0.1178,0.1112,0.1114,0.1115,0.1116,0,0,0.0757,0.0787,0.0792,0.0809,0.0846,0.0859,0.0892,0.0933,0.0972,0.0984,0.1029,0.107,0.1104,0.1136,0.1154,0.1153,0.116,0.1154,0.1158,0.1144,0.1207,0.1155,0.1158,0.115,0.1152,0.1153,0.1186,0,0.0755,0.0769,0.079,0.0816,0.0831,0.0875,0.0904,0.0946,0.0978,0.1027,0.1055,0.1115,0.1107,0.1137,0.1138,0.1192,0.1185,0.1152,0.1226,0.123,0.1164,0.1168,0.116,0.1192,0.1194,0.1195,0.1196,0,0.0747,0.076,0.0781,0.0823,0.0837,0.0863,0.0937,0.0965,0.1039,0.107,0.1125,0.1163,0.1216,0.119,0.1251,0.1224,0.1226,0.1229,0.123,0.1237,0.1194,0.1202,0.1211,0.121,0.1209,0.1208,0.1207,0,0.072,0.0754,0.0772,0.0784,0.0837,0.087,0.0909,0.0984,0.1024,0.1119,0.1161,0.1225,0.1272,0.1289,0.1308,0.1283,0.1352,0.1318,0.1268,0.1263,0.134,0.1338,0.1358,0.1358,0.1358,0.1358,0.1358,0,0.0697,0.0714,0.0765,0.0772,0.0813,0.0859,0.0919,0.0978,0.1065,0.1118,0.1191,0.124,0.1299,0.1338,0.1334,0.1334,0.1379,0.1293,0.128,0.1294,0.1287,0.1342,0.134,0.1359,0.1359,0.1358,0.1358,0,0.0654,0.0688,0.0711,0.0772,0.0797,0.0827,0.0917,0.0958,0.1057,0.1134,0.117,0.1272,0.1334,0.1371,0.1414,0.1372,0.1376,0.136,0.1379,0.1363,0.1254,0.1247,0.1306,0.1304,0.1303,0.1302,0.1301,0,0.0625,0.0632,0.0698,0.0717,0.0746,0.0803,0.0842,0.0947,0.0992,0.1136,0.116,0.1267,0.1323,0.1342,0.1387,0.1394,0.1373,0.1359,0.1304,0.1273,0.1254,0.1249,0.1243,0.13,0.1299,0.1299,0.1299,0,0.0567,0.06,0.062,0.066,0.0701,0.0748,0.0812,0.0846,0.0966,0.1064,0.114,0.1192,0.1264,0.1306,0.1336,0.1328,0.1363,0.1347,0.1348,0.1296,0.1266,0.1248,0.1244,0.1295,0.1295,0.1296,0.1296,0,0.0523,0.0526,0.0558,0.0594,0.0638,0.0674,0.0724,0.0786,0.0853,0.1015,0.1035,0.1152,0.1249,0.1272,0.129,0.1301,0.1271,0.1213,0.122,0.1225,0.1186,0.1136,0.1131,0,0,0,0,0,0.0476,0.0477,0.049,0.0523,0.056,0.06,0.0691,0.0746,0.0868,0.0897,0.097,0.1036,0.1109,0.1164,0.1158,0.1245,0.1264,0.1232,0.1197,0.1274,0.1278,0.1242,0,0,0,0,0,0,0.0443,0.0452,0.0464,0.0456,0.0466,0.051,0.0573,0.0659,0.0687,0.0816,0.086,0.0963,0.1042,0.1095,0.1131,0.1149,0.1106,0.1306,0.1304,0.1271,0.1275,0.1279,0.1243,0,0,0,0,0]},{"header":{"parameterUnit":"m.s-1","parameterCategory":2,"la1":30.2991,"la2":30.254,"lo1":-89.0895,"lo2":-89.0444,"dy":0.0017,"dx":0.0017,"nx":28,"ny":28,"refTime":"2026-02-09T03:00:00:Z","depth":"4","parameterNumber":3,"parameterNumberName":"V-component_of_CURRENTS"},"data":[0,0,0,0,0,0,0,0,0,0,0,0,0,0,0,0,0,0,0,0,0,0,0,0,0,0,0,0,0,0,0,0,0,0,0,0,0,0,0,0,0,0,0,0,0,0,0,0,0,0,0,0,0,0,0,0,0,0,0.0096,0.0096,0,0.0045,0.0044,0.0043,-0.0001,-0.0001,-0.0001,-0.0001,-0.0065,-0.0066,-0.0068,0,0,0,0,0,0,0,0,0,0,0,0,0,0.0082,0.0083,0.0096,0.0096,0.0095,0.0045,0.0044,0.0043,-0.0001,-0.0001,-0.0001,-0.0001,-0.0065,-0.0066,-0.0068,0,0,0,0,0,0,0,0,0,0,0,0,0,0.0063,0.0083,0.0096,0.0069,0.0066,0.0045,0.0044,0.0043,-0.0001,-0.0001,-0.0001,-0.0002,-0.0064,-0.0066,-0.0068,-0.0074,0,0,-0.0075,-0.0076,0,0,0,0,0,0,0,0,0.0064,0.0063,0.0074,0.0071,0.0068,0.003,0.0016,0.0004,-0.0,0.0022,-0.0001,-0.0002,-0.0032,-0.0037,-0.0049,-0.0077,-0.008,-0.0075,-0.0076,-0.0077,-0.0078,0,0,0,0,0,0,0,0.0066,0.0065,0.0073,0.0073,0.007,0.0035,0.0032,0.0013,-0.0005,0.002,0.0017,0.0016,-0.0034,-0.0047,-0.0051,-0.0081,-0.0075,-0.0077,-0.0078,-0.0079,-0.0144,-0.0144,0,0,0,0,0,0,0.0082,0.0067,0.0075,0.0072,0.0068,0.0036,0.0033,0.0041,-0.0004,-0.0011,0.0017,0.0014,-0.0043,-0.0049,-0.0054,-0.0058,-0.0077,-0.0079,-0.0081,-0.0143,-0.0144,-0.0144,0,0,0,0,0,0,0.0082,0.0084,0.0077,0.0069,0.0066,0.0037,0.0046,0.004,0.0028,-0.0006,-0.0014,0.0011,-0.0044,-0.0051,-0.0077,-0.0061,-0.008,-0.0082,-0.0143,-0.0143,-0.0144,-0.0071,0,0,0,0,0,0,0.0082,0.0084,0.0091,0.0071,0.0068,0.0074,0.0047,0.0039,0.0029,0.0025,-0.0013,-0.002,-0.0045,-0.0074,-0.0079,-0.0065,-0.0084,-0.0142,-0.0143,-0.0144,-0.0073,-0.0069,-0.0066,0,0,0,0,0,0.0082,0.01,0.0092,0.0092,0.008,0.0074,0.0069,0.0044,0.0029,0.003,-0.0006,-0.0018,-0.0082,-0.0076,-0.0082,-0.0068,-0.0142,-0.0143,-0.0144,-0.0075,-0.007,-0.0066,0,0,0,0,0,0,0.0099,0.0097,0.0087,0.0104,0.0093,0.0068,0.0067,0.0049,0.0021,0.0015,-0.0022,-0.0031,-0.0052,-0.0075,-0.0066,-0.0093,-0.0114,-0.0117,-0.006,-0.0056,-0.0052,-0.0047,-0.0086,0,0,0,0,0,0.0108,0.012,0.0107,0.0121,0.0117,0.0091,0.0084,0.007,0.0045,0.0032,0.0006,-0.0029,-0.0061,-0.0069,-0.0102,-0.0108,-0.0141,-0.0107,-0.0103,-0.01,-0.0103,-0.0151,-0.0151,-0.0147,-0.0147,-0.0147,0,0,0.0116,0.0119,0.0124,0.0125,0.0112,0.0112,0.0086,0.0083,0.0083,0.0031,0.002,-0.0018,-0.0064,-0.0079,-0.0089,-0.0093,-0.0115,-0.0101,-0.0097,-0.0102,-0.0152,-0.0152,-0.0152,-0.0148,-0.0148,-0.0147,0,0,0.0139,0.0145,0.0156,0.0152,0.0144,0.0132,0.0135,0.0114,0.0105,0.0093,0.0046,0.0012,-0.0017,-0.0055,-0.0076,-0.0074,-0.0101,-0.0077,-0.0043,-0.0088,-0.0089,-0.009,-0.011,-0.0113,-0.0066,-0.0066,-0.0066,0,0.0148,0.0164,0.0157,0.0165,0.0168,0.0145,0.0153,0.0143,0.0117,0.0108,0.0101,0.0026,-0.0008,-0.0046,-0.0045,-0.0063,-0.0086,-0.0048,-0.0082,-0.0083,-0.0086,-0.0106,-0.0111,-0.0063,-0.0063,-0.0063,-0.0064,0,0.017,0.0184,0.0194,0.0198,0.02,0.0209,0.0197,0.0192,0.0183,0.0166,0.0134,0.0081,0.0035,0.0023,-0.0006,-0.0039,-0.0048,-0.0075,-0.0085,-0.0081,-0.0104,-0.0109,-0.0058,-0.0059,-0.006,-0.0061,0,0,0.0187,0.0205,0.0209,0.0221,0.0221,0.0229,0.0232,0.0226,0.0225,0.0201,0.019,0.0134,0.0101,0.0071,0.0026,-0.0008,-0.0033,-0.0036,-0.004,-0.0042,-0.0114,-0.0103,-0.0109,-0.0062,-0.0063,-0.0064,-0.0115,0,0.0204,0.0237,0.0238,0.0267,0.0281,0.027,0.0277,0.0269,0.0258,0.0243,0.0189,0.016,0.0123,0.0102,0.006,-0.002,-0.005,-0.0016,-0.0131,-0.0134,-0.0114,-0.0116,-0.0068,-0.012,-0.0122,-0.0123,-0.0123,0,0.0219,0.0243,0.0278,0.0308,0.0312,0.0325,0.0334,0.0337,0.0307,0.0296,0.0255,0.0211,0.0151,0.012,0.0004,0.003,-0.0035,-0.009,-0.0094,-0.0117,-0.0135,-0.0135,-0.0135,-0.0134,-0.0133,-0.0132,-0.0132,0,0.0237,0.0272,0.0308,0.0318,0.0341,0.0354,0.0364,0.0351,0.0362,0.0324,0.0322,0.0241,0.0205,0.0109,0.0005,0.0002,-0.0119,-0.0141,-0.019,-0.0189,-0.0215,-0.0214,-0.0225,-0.0224,-0.0224,-0.0224,-0.0224,0,0.0257,0.0285,0.0323,0.0342,0.0385,0.0387,0.042,0.0412,0.0404,0.0415,0.035,0.0331,0.0199,0.0119,0.0018,-0.0096,-0.011,-0.0186,-0.0208,-0.018,-0.0175,-0.0217,-0.0216,-0.0226,-0.0226,-0.0225,-0.0225,0,0.0269,0.0292,0.0338,0.0378,0.0396,0.0427,0.0472,0.0491,0.0475,0.0484,0.0477,0.0397,0.0287,0.0162,0.0003,-0.007,-0.0188,-0.0227,-0.0165,-0.0183,-0.0228,-0.0222,-0.0285,-0.0285,-0.0285,-0.0285,-0.0285,0,0.028,0.0306,0.0371,0.0407,0.0429,0.0478,0.0513,0.0524,0.0544,0.0523,0.0525,0.0432,0.0363,0.0162,0.0017,-0.0165,-0.0197,-0.0243,-0.0258,-0.0222,-0.0237,-0.0231,-0.0226,-0.0285,-0.0285,-0.0285,-0.0285,0,0.03,0.0325,0.0366,0.0439,0.0491,0.0551,0.0597,0.0617,0.0624,0.0614,0.0567,0.0461,0.0337,0.0168,0.003,-0.0106,-0.0206,-0.0245,-0.0246,-0.026,-0.0224,-0.0237,-0.0232,-0.0286,-0.0286,-0.0286,-0.0286,0,0.0319,0.0351,0.0408,0.0473,0.054,0.06,0.0625,0.0647,0.0665,0.0635,0.0616,0.0478,0.0394,0.0198,0.0067,-0.0061,-0.0101,-0.0137,-0.0144,-0.0146,-0.0096,-0.0029,-0.0049,0,0,0,0,0,0.0336,0.0375,0.0437,0.0509,0.0574,0.0615,0.0672,0.0687,0.0692,0.0669,0.0645,0.0528,0.0328,0.0234,0.0107,0.0053,-0.0127,-0.01,-0.0172,-0.0289,-0.0288,-0.0254,0,0,0,0,0,0,0.0348,0.0406,0.0438,0.0527,0.0577,0.0653,0.0692,0.0699,0.0681,0.0661,0.0553,0.0501,0.03,0.0398,0.0104,0.0064,0.0003,-0.0197,-0.0199,-0.0289,-0.0289,-0.0288,-0.0253,0,0,0,0,0]}]]